FW9881 Weather Reports


Display with metric or nautical units.
time (UTC)temp
F
wind
direction
speed
MPH
gust
MPH
rain 1hr
in
rain 24hr
in
rain mn
in
humidity
%
barometer
mb
20260509203317 44 180 0.0 0.0 0.09 0.56 0.56 91 1015.7
20260509202416 44 180 0.0 0.0 0.09 0.55 0.54 91 1015.7
20260509202317 44 180 0.0 0.0 0.08 0.54 0.54 91 1015.6
20260509201318 44 337 0.0 0.0 0.08 0.53 0.53 91 1015.9
20260509201216 44 337 0.0 0.0 0.08 0.53 0.53 90 1015.8
20260509193218 43 157 0.0 0.0 0.07 0.47 0.47 91 1015.6
20260509192317 43 157 0.0 0.0 0.07 0.46 0.46 90 1015.8
20260509191216 43 157 0.0 1.0 0.08 0.45 0.44 91 1016.0
20260509190219 43 112 1.0 2.0 0.09 0.44 0.44 90 1015.8
20260509185316 43 157 0.0 0.0 0.08 0.42 0.42 90 1015.9
20260509184317 43 112 0.0 0.0 0.09 0.41 0.41 91 1016.0
20260509183318 43 112 2.0 3.0 0.09 0.40 0.40 91 1016.0
20260509182416 43 112 1.0 2.0 0.09 0.39 0.39 90 1016.2
20260509181418 43 112 0.0 1.0 0.09 0.37 0.37 91 1016.4
20260509181316 43 112 0.0 1.0 0.09 0.37 0.37 90 1016.4
20260509180317 43 112 0.0 0.0 0.08 0.35 0.35 91 1016.5
20260509175318 43 112 0.0 1.0 0.09 0.34 0.34 90 1016.6
20260509174416 43 135 0.0 1.0 0.10 0.32 0.32 91 1016.6
20260509173417 43 157 0.0 0.0 0.10 0.31 0.31 91 1016.7
20260509171417 43 112 0.0 1.0 0.10 0.28 0.28 91 1016.8
20260509171318 43 112 1.0 3.0 0.10 0.28 0.28 91 1016.7
20260509170317 43 157 1.0 2.0 0.11 0.27 0.26 90 1016.9
20260509170218 43 124 0.0 3.0 0.10 0.26 0.26 91 1016.8
20260509165217 43 136 0.0 2.0 0.09 0.24 0.24 91 1016.8
20260509162316 44 202 0.0 0.0 0.08 0.19 0.19 90 1016.8
20260509160317 44 157 0.0 0.0 0.06 0.16 0.16 91 1017.1
20260509155318 44 247 0.0 0.0 0.06 0.15 0.15 91 1017.1
20260509154317 43 157 0.0 2.0 0.06 0.14 0.13 91 1017.3
20260509154218 43 149 0.0 1.0 0.05 0.13 0.13 91 1017.2
20260509153217 43 157 0.0 0.0 0.05 0.12 0.12 91 1017.4
20260509153118 43 154 2.0 5.0 0.05 0.12 0.12 90 1017.4
20260509153017 43 135 3.0 5.0 0.05 0.12 0.12 91 1017.5
20260509152017 43 157 0.0 2.0 0.04 0.11 0.11 91 1017.6
20260509151017 43 135 1.0 2.0 0.04 0.10 0.10 91 1017.5
20260509145118 42 202 0.0 0.0 0.05 0.09 0.09 90 1017.5
20260509142118 42 225 0.0 0.0 0.04 0.07 0.07 91 1017.3
20260509142017 42 225 0.0 0.0 0.04 0.07 0.06 91 1017.2
20260509141017 42 202 0.0 3.0 0.04 0.06 0.06 90 1017.5
20260509140017 42 225 1.0 2.0 0.03 0.05 0.05 90 1017.5
20260509135116 42 157 1.0 1.0 0.03 0.04 0.04 91 1017.3
20260509134135 42 157 0.0 0.0 0.03 0.04 0.04 90 1017.1
20260509133217 42 157 0.0 0.0 0.03 0.03 0.03 91 1017.1
20260509132116 42 157 0.0 0.0 0.03 0.03 0.03 91 1017.1
20260509131118 41 157 0.0 0.0 0.02 0.02 0.02 91 1017.2
20260509130117 41 157 0.0 0.0 0.02 0.02 0.02 90 1017.2
20260509125217 41 157 0.0 0.0 0.01 0.01 0.01 91 1017.3
20260509124218 40 157 0.0 0.0 0.01 0.01 0.01 91 1017.3
20260509123117 40 170 0.0 2.0 0.00 0.00 0.00 90 1017.5
20260509122117 40 180 0.0 0.0 0.00 0.00 0.00 89 1017.7
20260509121116 39 180 0.0 0.0 0.00 0.00 0.00 90 1017.7
20260509120132 39 180 0.0 0.0 0.00 0.00 0.00 90 1017.5
20260509115216 38 180 0.0 0.0 0.00 0.00 0.00 90 1017.6
20260509114218 37 180 0.0 0.0 0.00 0.00 0.00 90 1017.6
20260509114133 37 180 0.0 0.0 0.00 0.00 0.00 91 1017.5
20260509111219 35 157 0.0 0.0 0.00 0.00 0.00 91 1017.5
20260509111118 35 157 0.0 0.0 0.00 0.00 0.00 90 1017.4
20260509105117 34 157 0.0 0.0 0.00 0.00 0.00 92 1017.6
20260509105018 34 157 0.0 0.0 0.00 0.00 0.00 92 1017.6
20260509104033 34 157 0.0 0.0 0.00 0.00 0.00 91 1017.6
20260509103116 33 157 0.0 0.0 0.00 0.00 0.00 91 1017.6
20260509103016 33 157 0.0 0.0 0.00 0.00 0.00 91 1017.5
20260509101018 32 157 0.0 0.0 0.00 0.00 0.00 92 1017.5
20260509100916 32 157 0.0 0.0 0.00 0.00 0.00 92 1017.4
20260509095918 32 157 1.0 1.0 0.00 0.00 0.00 92 1017.3
20260509094917 32 157 0.0 0.0 0.00 0.00 0.00 91 1017.1
20260509093916 32 157 0.0 0.0 0.00 0.00 0.00 92 1017.1
20260509093818 32 157 0.0 0.0 0.00 0.00 0.00 91 1017.1
20260509092817 32 157 1.0 2.0 0.00 0.00 0.00 92 1017.1
20260509091916 32 157 0.0 0.0 0.00 0.00 0.00 92 1016.9
20260509090919 32 157 0.0 0.0 0.00 0.00 0.00 90 1016.8
20260509090015 31 157 0.0 0.0 0.00 0.00 0.00 90 1016.7
20260509085918 31 157 0.0 0.0 0.00 0.00 0.00 91 1016.9
20260509084938 31 157 0.0 0.0 0.00 0.00 0.00 91 1016.8
20260509082937 30 157 1.0 2.0 0.00 0.00 0.00 91 1016.4
20260509081938 30 157 0.0 0.0 0.00 0.00 0.00 91 1016.5
20260509081036 31 157 0.0 0.0 0.00 0.00 0.00 91 1016.4
20260509080039 31 157 0.0 1.0 0.00 0.00 0.00 90 1016.4
20260509075136 31 180 1.0 1.0 0.00 0.00 0.00 91 1016.3
20260509074137 31 180 0.0 0.0 0.00 0.00 0.00 90 1016.5
20260509073136 31 180 0.0 0.0 0.00 0.00 0.00 89 1016.5
20260509073037 31 180 0.0 0.0 0.00 0.00 0.00 89 1016.5
20260509072038 32 180 0.0 0.0 0.00 0.00 0.00 89 1016.6
20260509071936 32 180 0.0 0.0 0.00 0.00 0.00 89 1016.6
20260509065953 32 180 0.0 0.0 0.00 0.00 0.00 88 1016.3
20260509064936 32 180 0.0 0.0 0.00 0.00 0.00 88 1016.5
20260509062938 33 22 0.0 0.0 0.00 0.00 0.00 88 1016.6
20260509061938 34 22 0.0 1.0 0.00 0.00 0.00 87 1016.6
20260509061036 34 22 1.0 2.0 0.00 0.00 0.00 87 1016.7
20260509060937 34 337 0.0 2.0 0.00 0.00 0.00 87 1016.7
20260509055936 34 315 0.0 0.0 0.00 0.00 0.00 85 1016.8
20260509053135 35 315 0.0 0.0 0.00 0.00 0.00 84 1016.9
20260509052151 35 315 0.0 0.0 0.00 0.00 0.00 82 1016.7
20260509051235 36 315 0.0 0.0 0.00 0.00 0.00 82 1016.6
20260509050239 36 315 0.0 0.0 0.00 0.00 0.00 81 1016.7
20260509045335 36 315 0.0 0.0 0.00 0.00 0.00 80 1016.5
20260509045237 37 315 0.0 0.0 0.00 0.00 0.00 80 1016.5
20260509043235 37 315 0.0 0.0 0.00 0.00 0.00 79 1016.5
20260509042236 38 315 0.0 0.0 0.00 0.00 0.00 77 1016.4
20260509041335 38 315 0.0 0.0 0.00 0.00 0.00 77 1016.4
20260509040238 39 315 0.0 0.0 0.00 0.00 0.00 75 1016.3
20260509035246 39 225 0.0 0.0 0.00 0.00 0.00 74 1016.3
20260509032247 40 281 0.0 2.0 0.00 0.00 0.00 74 1016.3
20260509025347 40 112 0.0 0.0 0.00 0.00 0.00 72 1016.0
20260509024345 41 112 0.0 0.0 0.00 0.00 0.00 70 1015.8
20260509023345 41 112 0.0 0.0 0.00 0.00 0.00 70 1016.0
20260509023244 41 112 0.0 0.0 0.00 0.00 0.00 69 1016.0
20260509022246 42 112 1.0 1.0 0.00 0.00 0.00 68 1015.9
20260509021344 43 112 0.0 1.0 0.00 0.00 0.00 66 1015.8
20260509020345 44 112 0.0 1.0 0.00 0.00 0.00 64 1015.7
20260509015444 45 22 1.0 1.0 0.00 0.00 0.00 61 1015.5
20260509014445 46 270 0.0 1.0 0.00 0.00 0.00 59 1015.5
20260509014344 46 270 0.0 1.0 0.00 0.00 0.00 59 1015.4
20260509012345 46 263 2.0 4.0 0.00 0.00 0.00 59 1015.1
20260509011346 46 254 1.0 2.0 0.00 0.00 0.00 59 1015.0
20260509010347 46 242 2.0 5.0 0.00 0.00 0.00 58 1015.0
20260509005347 47 247 1.0 2.0 0.00 0.00 0.00 57 1014.6
20260509004444 47 247 1.0 2.0 0.00 0.00 0.00 56 1014.4
20260509004347 47 247 1.0 2.0 0.00 0.00 0.00 56 1014.5
20260509003347 47 247 1.0 2.0 0.00 0.00 0.00 56 1014.4
20260509002345 47 253 2.0 3.0 0.00 0.00 0.00 55 1014.3
20260509001346 47 311 1.0 2.0 0.00 0.00 0.00 55 1014.1
20260509000444 48 246 3.0 5.0 0.00 0.00 0.00 54 1014.0
20260509000348 48 244 3.0 4.0 0.00 0.00 0.00 55 1014.1
20260508235444 48 248 2.0 4.0 0.00 0.00 0.00 54 1014.1
20260508234447 48 274 5.0 9.0 0.00 0.00 0.00 54 1013.8
20260508233447 48 253 2.0 5.0 0.00 0.00 0.00 53 1013.7
20260508232446 48 293 5.0 9.0 0.00 0.00 0.00 51 1013.5
20260508230545 49 277 6.0 9.0 0.00 0.00 0.00 48 1013.4
20260508223746 50 261 4.0 8.0 0.00 0.00 0.00 49 1013.3
20260508221802 50 259 5.0 7.0 0.00 0.00 0.00 45 1013.4
20260508221646 51 264 6.0 9.0 0.00 0.00 0.00 44 1013.3
20260508220647 52 254 8.0 13.0 0.00 0.00 0.00 42 1013.1
20260508220547 52 249 5.0 12.0 0.00 0.00 0.00 41 1013.2
20260508215601 52 240 2.0 3.0 0.00 0.00 0.00 40 1012.9
20260508215446 52 236 4.0 7.0 0.00 0.00 0.00 39 1012.8
20260508214448 53 263 6.0 11.0 0.00 0.00 0.00 39 1012.6
20260508211546 53 302 2.0 4.0 0.00 0.00 0.00 41 1012.3
20260508210546 52 271 1.0 3.0 0.00 0.00 0.00 40 1012.3
20260508204645 53 271 3.0 6.0 0.00 0.00 0.00 40 1012.2